When you browse on this site, cookies collect data to enhance your experience and personalize the content and advertising you see.
Visit our Privacy Policy to learn more. By continuing to use the site, you agree to this use of cookies and data.
  • In Switzerland
  • List of Countries
  • For 7 days
  • Water Temperature
  • Satellite Maps
  • Weather Map
  • Weather Widgets
  • user-avatar
    Login

    Hourly Weather Jalalabad

    Today, 17 July, Wednesday

    Time Temperature Precipitation Wind Pressure Humidity
    00:00 +33°C° 0.4 mm 3 mps 704 mmHg 62%
    01:00 +31°C° 0.4 mm 2 mps 704 mmHg 63%
    02:00 +31°C° 0.4 mm 1 mps 704 mmHg 65%
    03:00 +31°C° 0.1 mm 1 mps 704 mmHg 65%
    04:00 +31°C° 0.1 mm 1 mps 704 mmHg 66%
    05:00 +28°C° 0.1 mm 0 mps 704 mmHg 66%
    06:00 +31°C° 0 mm 1 mps 704 mmHg 65%
    07:00 +31°C° 0 mm 1 mps 704 mmHg 64%
    08:00 +31°C° 0 mm 1 mps 704 mmHg 63%
    09:00 +34°C° 0 mm 2 mps 704 mmHg 58%
    10:00 +35°C° 0 mm 2 mps 704 mmHg 53%
    11:00 +36°C° 0 mm 3 mps 704 mmHg 49%
    12:00 +37°C° 0 mm 3 mps 704 mmHg 45%
    13:00 +38°C° 0 mm 4 mps 703 mmHg 41%
    14:00 +40°C° 0 mm 4 mps 703 mmHg 38%
    15:00 +40°C° 0 mm 5 mps 703 mmHg 38%
    16:00 +40°C° 0 mm 5 mps 703 mmHg 39%
    17:00 +40°C° 0 mm 5 mps 702 mmHg 39%
    18:00 +39°C° 0 mm 5 mps 703 mmHg 42%
    19:00 +37°C° 0 mm 5 mps 703 mmHg 44%
    20:00 +36°C° 0 mm 4 mps 703 mmHg 47%
    21:00 +36°C° 0 mm 3 mps 703 mmHg 48%
    22:00 +36°C° 0 mm 3 mps 704 mmHg 49%
    23:00 +35°C° 0 mm 2 mps 704 mmHg 50%

    Tomorrow, 18 July, Thursday

    Time Temperature Precipitation Wind Pressure Humidity
    00:00 +35°C° 0 mm 2 mps 704 mmHg 51%
    01:00 +34°C° 0 mm 1 mps 704 mmHg 52%
    02:00 +34°C° 0 mm 1 mps 703 mmHg 53%
    03:00 +33°C° 0.1 mm 1 mps 703 mmHg 54%
    04:00 +33°C° 0.1 mm 1 mps 703 mmHg 56%
    05:00 +30°C° 0.1 mm 0 mps 703 mmHg 57%
    06:00 +33°C° 0 mm 1 mps 704 mmHg 55%
    07:00 +33°C° 0 mm 1 mps 704 mmHg 53%
    08:00 +34°C° 0 mm 1 mps 704 mmHg 50%
    09:00 +36°C° 0 mm 2 mps 704 mmHg 47%
    10:00 +37°C° 0 mm 2 mps 704 mmHg 43%
    11:00 +38°C° 0 mm 3 mps 704 mmHg 39%
    12:00 +39°C° 0 mm 3 mps 704 mmHg 36%
    13:00 +41°C° 0 mm 4 mps 703 mmHg 34%
    14:00 +42°C° 0 mm 4 mps 703 mmHg 31%
    15:00 +42°C° 0 mm 5 mps 703 mmHg 31%
    16:00 +42°C° 0 mm 5 mps 703 mmHg 31%
    17:00 +42°C° 0 mm 6 mps 702 mmHg 31%
    18:00 +41°C° 0 mm 5 mps 703 mmHg 35%
    19:00 +40°C° 0 mm 5 mps 703 mmHg 38%
    20:00 +39°C° 0 mm 5 mps 703 mmHg 41%
    21:00 +38°C° 0 mm 4 mps 703 mmHg 43%
    22:00 +37°C° 0 mm 3 mps 704 mmHg 46%
    23:00 +37°C° 0 mm 2 mps 704 mmHg 48%

    Day after tomorrow, 19 July, Friday

    Time Temperature Precipitation Wind Pressure Humidity
    00:00 +36°C° 0 mm 2 mps 704 mmHg 49%
    01:00 +36°C° 0 mm 2 mps 704 mmHg 51%
    02:00 +34°C° 0 mm 1 mps 703 mmHg 52%
    03:00 +34°C° 0.1 mm 1 mps 704 mmHg 54%
    04:00 +33°C° 0.1 mm 1 mps 704 mmHg 56%
    05:00 +33°C° 0.1 mm 1 mps 704 mmHg 58%
    06:00 +33°C° 0 mm 1 mps 704 mmHg 57%
    07:00 +34°C° 0 mm 1 mps 704 mmHg 56%
    08:00 +35°C° 0 mm 2 mps 704 mmHg 54%
    09:00 +36°C° 0 mm 2 mps 704 mmHg 50%
    10:00 +37°C° 0 mm 3 mps 704 mmHg 46%
    11:00 +39°C° 0 mm 3 mps 704 mmHg 42%
    12:00 +41°C° 0 mm 4 mps 704 mmHg 38%
    13:00 +42°C° 0 mm 4 mps 704 mmHg 35%
    14:00 +43°C° 0 mm 5 mps 704 mmHg 32%
    15:00 +43°C° 0 mm 5 mps 703 mmHg 32%
    16:00 +43°C° 0 mm 5 mps 703 mmHg 33%
    17:00 +42°C° 0 mm 5 mps 703 mmHg 33%
    18:00 +42°C° 0.1 mm 5 mps 703 mmHg 36%
    19:00 +41°C° 0.1 mm 5 mps 704 mmHg 39%
    20:00 +40°C° 0.1 mm 5 mps 704 mmHg 42%
    21:00 +38°C° 0 mm 4 mps 704 mmHg 44%
    22:00 +38°C° 0 mm 4 mps 704 mmHg 46%
    23:00 +37°C° 0 mm 3 mps 705 mmHg 48%

    20 July, Saturday

    Time Temperature Precipitation Wind Pressure Humidity
    00:00 +37°C° 0.1 mm 3 mps 705 mmHg 51%
    01:00 +36°C° 0.1 mm 2 mps 704 mmHg 53%
    02:00 +35°C° 0.1 mm 2 mps 704 mmHg 56%
    03:00 +34°C° 0.1 mm 1 mps 704 mmHg 58%
    04:00 +33°C° 0.1 mm 1 mps 704 mmHg 60%
    05:00 +33°C° 0.1 mm 1 mps 704 mmHg 63%
    06:00 +34°C° 0 mm 2 mps 704 mmHg 62%
    07:00 +35°C° 0 mm 2 mps 704 mmHg 60%
    08:00 +35°C° 0 mm 2 mps 705 mmHg 59%
    09:00 +36°C° 0 mm 2 mps 705 mmHg 54%
    10:00 +37°C° 0 mm 3 mps 705 mmHg 50%
    11:00 +38°C° 0 mm 3 mps 705 mmHg 45%
    12:00 +40°C° 0 mm 3 mps 705 mmHg 41%
    13:00 +42°C° 0 mm 4 mps 704 mmHg 37%
    14:00 +43°C° 0 mm 4 mps 704 mmHg 33%
    15:00 +43°C° 0 mm 5 mps 704 mmHg 35%
    16:00 +42°C° 0 mm 5 mps 704 mmHg 37%
    17:00 +42°C° 0 mm 6 mps 703 mmHg 39%
    18:00 +41°C° 0.1 mm 5 mps 703 mmHg 42%
    19:00 +40°C° 0.1 mm 5 mps 704 mmHg 45%
    20:00 +38°C° 0.1 mm 4 mps 704 mmHg 48%
    21:00 +38°C° 0 mm 3 mps 704 mmHg 49%
    22:00 +37°C° 0 mm 3 mps 704 mmHg 51%
    23:00 +37°C° 0 mm 2 mps 704 mmHg 52%

    21 July, Sunday

    Time Temperature Precipitation Wind Pressure Humidity
    00:00 +36°C° 0 mm 2 mps 704 mmHg 54%
    01:00 +36°C° 0 mm 2 mps 704 mmHg 56%
    02:00 +35°C° 0 mm 2 mps 703 mmHg 59%
    03:00 +34°C° 0 mm 1 mps 703 mmHg 60%
    04:00 +34°C° 0 mm 1 mps 703 mmHg 61%
    05:00 +33°C° 0 mm 1 mps 703 mmHg 63%
    06:00 +34°C° 0 mm 1 mps 703 mmHg 61%
    07:00 +34°C° 0 mm 1 mps 703 mmHg 58%
    08:00 +35°C° 0 mm 1 mps 703 mmHg 56%
    09:00 +36°C° 0 mm 1 mps 703 mmHg 50%
    10:00 +38°C° 0 mm 2 mps 703 mmHg 44%
    11:00 +40°C° 0 mm 2 mps 703 mmHg 38%
    12:00 +42°C° 0 mm 3 mps 703 mmHg 34%
    13:00 +43°C° 0 mm 3 mps 703 mmHg 31%
    14:00 +44°C° 0 mm 4 mps 702 mmHg 28%
    15:00 +44°C° 0 mm 4 mps 702 mmHg 28%
    16:00 +45°C° 0 mm 5 mps 702 mmHg 28%
    17:00 +45°C° 0 mm 5 mps 701 mmHg 28%
    18:00 +43°C° 0 mm 5 mps 702 mmHg 31%
    19:00 +42°C° 0 mm 5 mps 702 mmHg 34%
    20:00 +41°C° 0 mm 4 mps 702 mmHg 38%
    21:00 +41°C° 0 mm 4 mps 702 mmHg 40%
    22:00 +39°C° 0 mm 3 mps 702 mmHg 43%
    23:00 +38°C° 0 mm 2 mps 703 mmHg 45%

    22 July, Monday

    Time Temperature Precipitation Wind Pressure Humidity
    00:00 +38°C° 0 mm 2 mps 702 mmHg 47%
    01:00 +36°C° 0 mm 1 mps 702 mmHg 48%
    02:00 +36°C° 0 mm 1 mps 702 mmHg 49%
    03:00 +35°C° 0 mm 1 mps 702 mmHg 51%
    04:00 +33°C° 0 mm 0 mps 702 mmHg 53%
    05:00 +32°C° 0 mm 0 mps 702 mmHg 54%
    06:00 +33°C° 0 mm 0 mps 702 mmHg 51%
    07:00 +36°C° 0 mm 1 mps 702 mmHg 48%
    08:00 +37°C° 0 mm 1 mps 702 mmHg 45%
    09:00 +39°C° 0 mm 1 mps 702 mmHg 38%
    10:00 +40°C° 0 mm 2 mps 702 mmHg 32%
    11:00 +42°C° 0 mm 2 mps 702 mmHg 26%
    12:00 +44°C° 0 mm 3 mps 702 mmHg 23%
    13:00 +45°C° 0 mm 3 mps 702 mmHg 20%
    14:00 +47°C° 0 mm 4 mps 701 mmHg 17%
    15:00 +47°C° 0 mm 4 mps 701 mmHg 17%
    16:00 +47°C° 0 mm 4 mps 701 mmHg 16%
    17:00 +48°C° 0 mm 4 mps 700 mmHg 16%
    18:00 +46°C° 0 mm 5 mps 701 mmHg 21%
    19:00 +45°C° 0 mm 5 mps 701 mmHg 27%
    20:00 +42°C° 0 mm 5 mps 701 mmHg 32%
    21:00 +42°C° 0 mm 4 mps 701 mmHg 34%
    22:00 +40°C° 0 mm 3 mps 702 mmHg 36%
    23:00 +39°C° 0 mm 2 mps 702 mmHg 39%
    Show more